IZ0VWB-3 Weather Reports


Display with metric or nautical units.
time (UTC)temp
F
wind
direction
speed
MPH
gust
MPH
rain 1hr
in
rain 24hr
in
rain mn
in
humidity
%
barometer
mb
20260906071819 70 316 2.0 5.0 0.00 0.00 0.00 57 1008.3
20260906070819 70 321 1.0 3.0 0.00 0.00 0.00 58 1008.2
20260906065818 70 289 1.0 2.0 0.00 0.00 0.00 59 1008.1
20260906064818 69 305 2.0 2.0 0.00 0.00 0.00 60 1008.2
20260906063818 69 302 1.0 2.0 0.00 0.00 0.00 60 1008.1
20260906062818 68 292 1.0 2.0 0.00 0.00 0.00 60 1008.1
20260906061818 68 293 0.0 1.0 0.00 0.00 0.00 60 1008.0
20260906060818 69 294 1.0 2.0 0.00 0.00 0.00 59 1008.0
20260906055817 70 292 1.0 1.0 0.00 0.00 0.00 54 1007.9
20260906054818 70 292 1.0 2.0 0.00 0.00 0.00 48 1007.9
20260906053818 70 283 2.0 2.0 0.00 0.00 0.00 43 1007.7
20260906052817 68 270 1.0 2.0 0.00 0.00 0.00 44 1007.7
20260906051817 68 270 0.0 1.0 0.00 0.00 0.00 43 1007.6
20260906050819 67 248 2.0 3.0 0.00 0.00 0.00 44 1007.7
20260906045817 67 273 1.0 2.0 0.00 0.00 0.00 46 1007.7
20260906044817 66 270 1.0 1.0 0.00 0.00 0.00 47 1007.6
20260906043818 66 270 0.0 1.0 0.00 0.00 0.00 48 1007.6
20260906042817 67 270 1.0 2.0 0.00 0.00 0.00 48 1007.6
20260906041818 67 270 1.0 2.0 0.00 0.00 0.00 48 1007.5
20260906040818 67 248 1.0 1.0 0.00 0.00 0.00 50 1007.6
20260906035817 67 270 0.0 1.0 0.00 0.00 0.00 51 1007.6
20260906034818 67 315 1.0 1.0 0.00 0.00 0.00 50 1007.5
20260906033818 68 270 0.0 1.0 0.00 0.00 0.00 50 1007.3
20260906032817 68 270 0.0 0.0 0.00 0.00 0.00 50 1007.3
20260906031817 68 272 0.0 0.0 0.00 0.00 0.00 51 1007.3
20260906030818 68 289 0.0 1.0 0.00 0.00 0.00 51 1007.3
20260906025817 68 248 1.0 2.0 0.00 0.00 0.00 52 1007.3
20260906024818 68 225 1.0 1.0 0.00 0.00 0.00 55 1007.3
20260906023816 68 270 1.0 2.0 0.00 0.00 0.00 58 1007.4
20260906022817 68 270 0.0 0.0 0.00 0.00 0.00 60 1007.4
20260906021816 68 270 0.0 0.0 0.00 0.00 0.00 61 1007.4
20260906020816 68 248 1.0 1.0 0.00 0.00 0.00 62 1007.4
20260906015817 69 202 2.0 3.0 0.00 0.00 0.00 62 1007.3
20260906014816 69 203 1.0 2.0 0.00 0.00 0.00 64 1007.2
20260906013817 69 202 1.0 2.0 0.00 0.00 0.00 65 1007.4
20260906012817 69 202 0.0 0.0 0.00 0.00 0.00 64 1007.4
20260906011818 69 202 0.0 0.0 0.00 0.00 0.00 65 1007.4
20260906010818 69 225 1.0 2.0 0.00 0.00 0.00 64 1007.5
20260906005816 68 202 1.0 2.0 0.00 0.00 0.00 67 1007.5
20260906004816 68 204 3.0 7.0 0.00 0.00 0.00 67 1007.6
20260906003817 68 268 2.0 5.0 0.00 0.00 0.00 68 1007.5
20260906003057 68 248 0.0 0.0 0.00 0.00 0.00 68 1007.5
20260906002053 69 248 1.0 2.0 0.00 0.00 0.00 69 1007.5
20260906001054 69 248 0.0 1.0 0.00 0.00 0.00 70 1007.6
20260905235053 69 270 1.0 2.0 0.00 0.00 0.00 73 1007.5
20260905234052 69 225 1.0 3.0 0.00 0.00 0.00 75 1007.5
20260905233059 69 112 0.0 0.0 0.00 0.00 0.00 75 1007.4
20260905232051 70 213 0.0 0.0 0.00 0.00 0.00 75 1007.6
20260905231104 70 201 1.0 1.0 0.00 0.00 0.00 75 1007.5
20260905230058 71 218 1.0 2.0 0.00 0.00 0.00 75 1007.7
20260905225053 71 203 2.0 2.0 0.00 0.00 0.00 77 1007.5
20260905224050 71 248 0.0 0.0 0.00 0.00 0.00 78 1007.5
20260905223100 71 248 0.0 0.0 0.00 0.00 0.00 78 1007.6
20260905222052 71 158 0.0 0.0 0.00 0.00 0.00 78 1007.5
20260905221055 71 135 0.0 1.0 0.00 0.00 0.00 78 1007.6
20260905215056 72 211 3.0 4.0 0.00 0.00 0.00 77 1007.4
20260905214054 72 204 3.0 4.0 0.00 0.00 0.00 78 1007.2
20260905213059 72 135 0.0 0.0 0.00 0.00 0.00 78 1007.1
20260905212053 72 118 1.0 1.0 0.00 0.00 0.00 78 1007.2
20260905211054 73 158 0.0 1.0 0.00 0.00 0.00 78 1007.1
20260905210050 73 225 0.0 0.0 0.00 0.00 0.00 78 1007.1
20260905205816 73 225 0.0 0.0 0.00 0.00 0.00 78 1007.2
20260905204817 74 248 1.0 1.0 0.00 0.00 0.00 78 1007.2
20260905203816 74 222 1.0 1.0 0.00 0.00 0.00 78 1007.3
20260905202815 74 257 2.0 4.0 0.00 0.00 0.00 77 1007.3
20260905201815 74 267 4.0 4.0 0.00 0.00 0.00 77 1007.3
20260905200815 74 212 3.0 3.0 0.00 0.00 0.00 77 1007.3
20260905195815 75 193 3.0 4.0 0.00 0.00 0.00 76 1007.0
20260905194816 75 203 0.0 1.0 0.00 0.00 0.00 75 1006.9
20260905193815 75 198 0.0 0.0 0.00 0.00 0.00 74 1007.0
20260905192814 75 180 0.0 0.0 0.00 0.00 0.00 73 1007.0
20260905191815 76 180 0.0 0.0 0.00 0.00 0.00 72 1006.8
20260905190816 76 158 0.0 0.0 0.00 0.00 0.00 71 1006.8
20260905185815 76 140 0.0 1.0 0.00 0.00 0.00 69 1006.6
20260905184815 76 99 2.0 2.0 0.00 0.00 0.00 68 1006.6
20260905183815 77 114 0.0 2.0 0.00 0.00 0.00 66 1006.4
20260905182814 78 135 0.0 0.0 0.00 0.00 0.00 64 1006.3
20260905181815 79 150 2.0 3.0 0.00 0.00 0.00 62 1006.1
20260905180816 79 353 0.0 2.0 0.00 0.00 0.00 62 1006.1
20260905175816 79 199 1.0 2.0 0.00 0.00 0.00 60 1006.0
20260905174814 80 242 1.0 4.0 0.00 0.00 0.00 60 1005.9
20260905173814 80 244 0.0 3.0 0.00 0.00 0.00 59 1005.9
20260905172814 80 119 3.0 4.0 0.00 0.00 0.00 58 1005.8
20260905171813 81 210 2.0 3.0 0.00 0.00 0.00 58 1005.8
20260905170813 83 247 8.0 13.0 0.00 0.00 0.00 57 1005.5
20260905165813 83 237 8.0 11.0 0.00 0.00 0.00 54 1005.4
20260905164813 84 254 5.0 9.0 0.00 0.00 0.00 51 1005.4
20260905163813 85 239 10.0 16.0 0.00 0.00 0.00 49 1005.4
20260905162809 86 255 9.0 9.0 0.00 0.00 0.00 46 1005.3
20260905161811 87 215 6.0 14.0 0.00 0.00 0.00 44 1005.4
20260905160811 87 241 6.0 8.0 0.00 0.00 0.00 43 1005.6
20260905155810 88 234 7.0 10.0 0.00 0.00 0.00 42 1005.5
20260905154810 88 218 7.0 12.0 0.00 0.00 0.00 40 1005.5
20260905153810 89 266 7.0 9.0 0.00 0.00 0.00 38 1005.5
20260905152811 89 216 5.0 9.0 0.00 0.00 0.00 40 1005.6
20260905151811 90 258 6.0 8.0 0.00 0.00 0.00 39 1005.5
20260905150810 91 268 6.0 7.0 0.00 0.00 0.00 37 1005.6
20260905145810 91 266 6.0 6.0 0.00 0.00 0.00 37 1005.6
20260905144810 91 239 7.0 8.0 0.00 0.00 0.00 37 1005.7
20260905143810 91 269 7.0 11.0 0.00 0.00 0.00 36 1005.6
20260905142810 91 205 7.0 7.0 0.00 0.00 0.00 34 1005.7
20260905141808 92 271 7.0 7.0 0.00 0.00 0.00 34 1005.8
20260905140808 92 247 7.0 7.0 0.00 0.00 0.00 33 1005.8
20260905135809 92 266 4.0 5.0 0.00 0.00 0.00 34 1005.8
20260905134809 91 204 6.0 9.0 0.00 0.00 0.00 35 1005.9
20260905133810 92 262 8.0 8.0 0.00 0.00 0.00 32 1006.0
20260905132809 92 276 8.0 13.0 0.00 0.00 0.00 32 1006.1
20260905131809 93 295 5.0 7.0 0.00 0.00 0.00 32 1006.2
20260905130808 93 259 5.0 6.0 0.00 0.00 0.00 32 1006.2
20260905125808 93 284 4.0 8.0 0.00 0.00 0.00 33 1006.3
20260905124808 93 289 8.0 8.0 0.00 0.00 0.00 32 1006.4
20260905123808 93 268 2.0 2.0 0.00 0.00 0.00 32 1006.4
20260905123224 93 236 5.0 8.0 0.00 0.00 0.00 32 1006.4
20260905122225 92 268 6.0 6.0 0.00 0.00 0.00 34 1006.5
20260905121224 92 259 6.0 12.0 0.00 0.00 0.00 33 1006.5
20260905120226 93 266 7.0 11.0 0.00 0.00 0.00 32 1006.7
20260905115216 92 274 4.0 6.0 0.00 0.00 0.00 33 1006.7
20260905114215 92 260 5.0 8.0 0.00 0.00 0.00 34 1006.6
20260905113216 92 281 8.0 10.0 0.00 0.00 0.00 34 1006.7
20260905112216 92 222 3.0 4.0 0.00 0.00 0.00 34 1006.6
20260905111215 91 321 2.0 5.0 0.00 0.00 0.00 36 1006.7
20260905110215 90 259 3.0 7.0 0.00 0.00 0.00 39 1006.8
20260905105216 89 320 2.0 3.0 0.00 0.00 0.00 39 1006.9
20260905104215 88 296 3.0 4.0 0.00 0.00 0.00 41 1006.9
20260905103217 88 124 5.0 6.0 0.00 0.00 0.00 41 1007.0
20260905102216 88 90 5.0 6.0 0.00 0.00 0.00 42 1007.0
20260905101216 87 90 4.0 4.0 0.00 0.00 0.00 44 1007.0
20260905100216 87 97 4.0 6.0 0.00 0.00 0.00 44 1007.0
20260905095809 87 124 5.0 8.0 0.00 0.00 0.00 44 1006.9
20260905094808 87 112 6.0 8.0 0.00 0.00 0.00 45 1006.9
20260905093807 86 128 4.0 6.0 0.00 0.00 0.00 45 1006.9
20260905092807 85 118 4.0 6.0 0.00 0.00 0.00 47 1006.8
20260905091807 84 103 6.0 9.0 0.00 0.00 0.00 50 1006.8
20260905090807 84 117 4.0 4.0 0.00 0.00 0.00 51 1006.9
20260905085808 83 107 6.0 7.0 0.00 0.00 0.00 51 1006.9
20260905084808 82 94 3.0 4.0 0.00 0.00 0.00 54 1007.0
20260905083808 82 64 2.0 4.0 0.00 0.00 0.00 54 1007.1
20260905082807 82 107 3.0 4.0 0.00 0.00 0.00 54 1007.0
20260905081807 81 95 1.0 2.0 0.00 0.00 0.00 56 1006.9
20260905080807 79 322 2.0 2.0 0.00 0.00 0.00 56 1007.1
20260905075807 79 320 1.0 2.0 0.00 0.00 0.00 57 1007.0
20260905074806 78 296 1.0 2.0 0.00 0.00 0.00 58 1006.9
20260905073806 78 39 2.0 4.0 0.00 0.00 0.00 59 1006.8
20260905072807 78 65 1.0 2.0 0.00 0.00 0.00 59 1006.6